BAW2B EGLL-KBOS

Flight info

Callsign BAW2B
Flight time N/A
Altitude 38000
Route CPT L9 BUCGO DCT FELCA DCT OFSOX DCT SLANY DCT MALOT/M083F380 NATD RIKAL/N0483F380 N572A TOPPS DCT AJJAY OOSHN5
Aircraft A388/J-SADE2E3FGHIJ3J4J5M1RWXY/LB1D1

Departure

Time N/A
Airport London Heathrow Airport (EGLL)

Arrival

Time 2026-05-04 22:28
Airport Boston Logan International Airport (KBOS)
Time Latitude Longitude Altitude Speed Heading
2026-05-04 21:36 46.43656 -65.90401 37695 ft 471 kts 232°
2026-05-04 21:36 46.39438 -65.97688 37691 ft 471 kts 232°
2026-05-04 21:37 46.35232 -66.04936 37687 ft 470 kts 232°
2026-05-04 21:37 46.31011 -66.12190 37691 ft 470 kts 232°
2026-05-04 21:38 46.26789 -66.19427 37699 ft 470 kts 232°
2026-05-04 21:38 46.22593 -66.26600 37697 ft 470 kts 232°
2026-05-04 21:39 46.18372 -66.33798 37701 ft 469 kts 232°
2026-05-04 21:39 46.14147 -66.40982 37720 ft 469 kts 232°
2026-05-04 21:40 46.09928 -66.48139 37717 ft 469 kts 232°
2026-05-04 21:40 46.05689 -66.55312 37717 ft 469 kts 232°
2026-05-04 21:41 46.01455 -66.62457 37719 ft 469 kts 232°
2026-05-04 21:41 45.97245 -66.69543 37734 ft 468 kts 232°
2026-05-04 21:42 45.93013 -66.76647 37740 ft 467 kts 232°
2026-05-04 21:42 45.88779 -66.83737 37741 ft 467 kts 232°
2026-05-04 21:43 45.84545 -66.90810 37747 ft 467 kts 232°
2026-05-04 21:43 45.80311 -66.97864 37761 ft 466 kts 232°
2026-05-04 21:44 45.76080 -67.04896 37756 ft 466 kts 232°
2026-05-04 21:44 45.71866 -67.11880 37755 ft 465 kts 232°
2026-05-04 21:45 45.67633 -67.18879 37755 ft 465 kts 232°
2026-05-04 21:45 45.63392 -67.25880 37775 ft 465 kts 232°
2026-05-04 21:46 45.59155 -67.32863 37773 ft 464 kts 232°
2026-05-04 21:46 45.54919 -67.39825 37771 ft 464 kts 232°
2026-05-04 21:47 45.50703 -67.46739 37790 ft 464 kts 232°
2026-05-04 21:47 45.46468 -67.53666 37779 ft 463 kts 232°
2026-05-04 21:48 45.42226 -67.60588 37776 ft 463 kts 232°
2026-05-04 21:48 45.37971 -67.67491 37774 ft 463 kts 230°
2026-05-04 21:49 45.33476 -67.73995 37779 ft 464 kts 228°
2026-05-04 21:49 45.28721 -67.80221 37788 ft 466 kts 223°
2026-05-04 21:50 45.23732 -67.86124 37784 ft 465 kts 224°
2026-05-04 21:50 45.18782 -67.92048 37774 ft 465 kts 224°
2026-05-04 21:51 45.13828 -67.97952 37776 ft 465 kts 224°
2026-05-04 21:51 45.08893 -68.03811 37773 ft 465 kts 224°
2026-05-04 21:52 45.03917 -68.09702 37780 ft 465 kts 224°
2026-05-04 21:52 44.98979 -68.15535 37782 ft 465 kts 224°
2026-05-04 21:53 44.94002 -68.21400 37780 ft 465 kts 224°
2026-05-04 21:53 44.89028 -68.27248 37786 ft 465 kts 223°
2026-05-04 21:54 44.84054 -68.33083 37791 ft 464 kts 224°
2026-05-04 21:54 44.79083 -68.38901 37789 ft 464 kts 223°
2026-05-04 21:55 44.74142 -68.44671 37782 ft 464 kts 223°
2026-05-04 21:55 44.69164 -68.50471 37780 ft 464 kts 223°
2026-05-04 21:56 44.64183 -68.56261 37780 ft 464 kts 223°
2026-05-04 21:56 44.59195 -68.62046 37780 ft 464 kts 223°
2026-05-04 21:57 44.54206 -68.67819 37778 ft 465 kts 223°
2026-05-04 21:57 44.49247 -68.73544 37783 ft 464 kts 223°
2026-05-04 21:58 44.44254 -68.79296 37789 ft 464 kts 223°
2026-05-04 21:58 44.39250 -68.85046 37790 ft 464 kts 223°
2026-05-04 21:59 44.34275 -68.90751 37788 ft 464 kts 223°
2026-05-04 21:59 44.29263 -68.96485 37791 ft 464 kts 223°
2026-05-04 22:00 44.24254 -69.02202 37795 ft 464 kts 223°
2026-05-04 22:00 44.19281 -69.07865 37781 ft 464 kts 223°
2026-05-04 22:01 44.14273 -69.13556 37792 ft 464 kts 223°
2026-05-04 22:01 44.10104 -69.18283 37793 ft 465 kts 223°
2026-05-04 22:02 44.05078 -69.23971 37777 ft 466 kts 223°
2026-05-04 22:02 44.00038 -69.29660 37779 ft 466 kts 223°
2026-05-04 22:03 43.95026 -69.35305 37500 ft 463 kts 223°
2026-05-04 22:03 43.92532 -69.38109 37251 ft 461 kts 223°
2026-05-04 22:03 43.90029 -69.40921 36997 ft 462 kts 223°
2026-05-04 22:03 43.87522 -69.43735 36706 ft 463 kts 224°
2026-05-04 22:04 43.85009 -69.46554 36444 ft 465 kts 224°
2026-05-04 22:04 43.82486 -69.49379 36193 ft 466 kts 224°
2026-05-04 22:04 43.79959 -69.52205 35936 ft 467 kts 224°
2026-05-04 22:04 43.77459 -69.54997 35656 ft 467 kts 224°
2026-05-04 22:05 43.74824 -69.57740 34991 ft 472 kts 219°
2026-05-04 22:05 43.72009 -69.60057 34117 ft 482 kts 213°
2026-05-04 22:05 43.68936 -69.61951 33532 ft 484 kts 206°
2026-05-04 22:05 43.65748 -69.63406 33048 ft 480 kts 203°
2026-05-04 22:06 43.62574 -69.64813 32446 ft 476 kts 204°
2026-05-04 22:06 43.59423 -69.66236 31874 ft 473 kts 204°
2026-05-04 22:06 43.56303 -69.67649 31272 ft 469 kts 204°
2026-05-04 22:06 43.53251 -69.69030 30675 ft 466 kts 204°
2026-05-04 22:07 43.50177 -69.70416 30119 ft 463 kts 204°
2026-05-04 22:07 43.47114 -69.71795 29456 ft 461 kts 204°
2026-05-04 22:07 43.44076 -69.73159 28896 ft 456 kts 204°
2026-05-04 22:07 43.41074 -69.74506 28312 ft 453 kts 204°
2026-05-04 22:08 43.38080 -69.75847 27714 ft 450 kts 204°
2026-05-04 22:08 43.35116 -69.77174 27143 ft 445 kts 204°
2026-05-04 22:08 43.32181 -69.78487 26598 ft 441 kts 204°
2026-05-04 22:08 43.29318 -69.79765 26051 ft 436 kts 204°
2026-05-04 22:09 43.26451 -69.81045 25515 ft 432 kts 204°
2026-05-04 22:09 43.23600 -69.82317 24919 ft 429 kts 204°
2026-05-04 22:09 43.20771 -69.83578 24370 ft 425 kts 204°
2026-05-04 22:09 43.17967 -69.84826 23794 ft 422 kts 203°
2026-05-04 22:10 43.15177 -69.86067 23211 ft 419 kts 203°
2026-05-04 22:10 43.12411 -69.87296 22637 ft 414 kts 203°
2026-05-04 22:10 43.09679 -69.88507 22066 ft 410 kts 203°
2026-05-04 22:10 43.06991 -69.89698 21554 ft 404 kts 203°
2026-05-04 22:11 43.04330 -69.90876 21024 ft 399 kts 203°
2026-05-04 22:11 43.01697 -69.92042 20479 ft 395 kts 203°
2026-05-04 22:11 42.99125 -69.93180 19941 ft 391 kts 203°
2026-05-04 22:11 42.96544 -69.94322 19417 ft 387 kts 203°
2026-05-04 22:12 42.93988 -69.95452 18868 ft 384 kts 203°
2026-05-04 22:12 42.91456 -69.96570 18349 ft 380 kts 203°
2026-05-04 22:12 42.88953 -69.97675 17822 ft 376 kts 203°
2026-05-04 22:12 42.86492 -69.98757 17445 ft 369 kts 203°
2026-05-04 22:13 42.84056 -69.99829 16950 ft 364 kts 203°
2026-05-04 22:13 42.81661 -70.00883 16445 ft 359 kts 202°
2026-05-04 22:13 42.79320 -70.01913 15952 ft 355 kts 202°
2026-05-04 22:13 42.76971 -70.02945 15458 ft 352 kts 203°
2026-05-04 22:14 42.74656 -70.03976 14972 ft 348 kts 204°
2026-05-04 22:14 42.72392 -70.05082 14491 ft 344 kts 205°
2026-05-04 22:14 42.70157 -70.06214 14000 ft 341 kts 205°
2026-05-04 22:14 42.67944 -70.07333 13519 ft 338 kts 205°
2026-05-04 22:15 42.65903 -70.08774 13045 ft 325 kts 222°
2026-05-04 22:15 42.64399 -70.10927 12615 ft 312 kts 240°
2026-05-04 22:15 42.63436 -70.13511 12297 ft 301 kts 249°
2026-05-04 22:15 42.62586 -70.16046 12165 ft 288 kts 249°
2026-05-04 22:16 42.61750 -70.18464 12050 ft 277 kts 249°
2026-05-04 22:16 42.60937 -70.20811 11774 ft 273 kts 249°
2026-05-04 22:16 42.60300 -70.23219 11526 ft 269 kts 258°
2026-05-04 22:16 42.59998 -70.25701 11271 ft 265 kts 268°
2026-05-04 22:17 42.59913 -70.28164 11022 ft 263 kts 269°
2026-05-04 22:17 42.59809 -70.30646 10762 ft 263 kts 268°
2026-05-04 22:17 42.59693 -70.33121 10535 ft 261 kts 268°
2026-05-04 22:17 42.59576 -70.35571 10275 ft 259 kts 268°
2026-05-04 22:18 42.59460 -70.38009 10029 ft 258 kts 269°
2026-05-04 22:18 42.59345 -70.40440 9866 ft 256 kts 269°
2026-05-04 22:18 42.59232 -70.42851 9671 ft 257 kts 269°
2026-05-04 22:18 42.59118 -70.45279 9402 ft 256 kts 268°
2026-05-04 22:19 42.59007 -70.47635 9129 ft 250 kts 268°
2026-05-04 22:19 42.58897 -70.49963 8861 ft 244 kts 268°
2026-05-04 22:19 42.58788 -70.52237 8609 ft 239 kts 268°
2026-05-04 22:19 42.58682 -70.54461 8350 ft 234 kts 267°
2026-05-04 22:20 42.58520 -70.56643 8109 ft 230 kts 261°
2026-05-04 22:20 42.58118 -70.58708 7853 ft 231 kts 255°
2026-05-04 22:20 42.57648 -70.60778 7612 ft 231 kts 254°
2026-05-04 22:20 42.57141 -70.62927 7296 ft 245 kts 253°
2026-05-04 22:21 42.56620 -70.65156 6912 ft 248 kts 253°
2026-05-04 22:21 42.56112 -70.67370 6561 ft 242 kts 253°
2026-05-04 22:21 42.55631 -70.69521 6119 ft 235 kts 253°
2026-05-04 22:21 42.55169 -70.71626 5720 ft 230 kts 253°
2026-05-04 22:22 42.54724 -70.73693 5336 ft 225 kts 253°
2026-05-04 22:22 42.54294 -70.75711 4986 ft 223 kts 253°
2026-05-04 22:22 42.53882 -70.77705 4626 ft 220 kts 253°
2026-05-04 22:22 42.53479 -70.79684 4226 ft 215 kts 254°
2026-05-04 22:23 42.53089 -70.81626 3817 ft 211 kts 253°
2026-05-04 22:23 42.52706 -70.83529 3433 ft 207 kts 253°
2026-05-04 22:23 42.52327 -70.85396 3065 ft 203 kts 254°
2026-05-04 22:23 42.51960 -70.87209 2720 ft 199 kts 253°
2026-05-04 22:24 42.51630 -70.88927 2386 ft 180 kts 254°
2026-05-04 22:24 42.51237 -70.90525 2049 ft 179 kts 242°
2026-05-04 22:24 42.50639 -70.91980 1980 ft 172 kts 238°
2026-05-04 22:24 42.49915 -70.93254 1985 ft 163 kts 230°
2026-05-04 22:25 42.49056 -70.94211 1982 ft 158 kts 215°
2026-05-04 22:25 42.48080 -70.94859 1960 ft 158 kts 208°
2026-05-04 22:25 42.47082 -70.95375 1821 ft 152 kts 206°
2026-05-04 22:25 42.46109 -70.95846 1691 ft 141 kts 206°
2026-05-04 22:26 42.45221 -70.96279 1661 ft 132 kts 206°
2026-05-04 22:26 42.44367 -70.96694 1450 ft 128 kts 207°
2026-05-04 22:26 42.43529 -70.97105 1297 ft 129 kts 207°
2026-05-04 22:26 42.42670 -70.97513 1124 ft 133 kts 205°
2026-05-04 22:27 42.41812 -70.97932 954 ft 132 kts 204°
2026-05-04 22:27 42.40962 -70.98343 786 ft 127 kts 205°
2026-05-04 22:27 42.40128 -70.98746 625 ft 123 kts 200°
2026-05-04 22:27 42.39340 -70.99120 431 ft 124 kts 202°
2026-05-04 22:28 42.38524 -70.99532 272 ft 122 kts 202°
2026-05-04 22:28 42.37702 -70.99930 97 ft 126 kts 202°
2026-05-04 22:28 42.36936 -71.00302 31 ft 98 kts 199°
2026-05-04 22:28 42.36472 -71.00525 30 ft 43 kts 200°
2026-05-04 22:29 42.36256 -71.00628 30 ft 26 kts 199°
2026-05-04 22:29 42.36149 -71.00722 31 ft 11 kts 248°
2026-05-04 22:29 42.36151 -71.00821 30 ft 13 kts 289°
2026-05-04 22:29 42.36181 -71.00914 30 ft 8 kts 295°
2026-05-04 22:30 42.36201 -71.00971 30 ft 6 kts 295°
2026-05-04 22:30 42.36222 -71.01031 30 ft 7 kts 294°
2026-05-04 22:30 42.36250 -71.01115 30 ft 18 kts 292°
2026-05-04 22:30 42.36302 -71.01243 30 ft 13 kts 301°
2026-05-04 22:31 42.36355 -71.01309 31 ft 10 kts 352°
2026-05-04 22:31 42.36456 -71.01278 31 ft 17 kts 21°
2026-05-04 22:31 42.36570 -71.01221 31 ft 18 kts 20°
2026-05-04 22:31 42.36691 -71.01162 31 ft 19 kts 19°
2026-05-04 22:32 42.36808 -71.01174 31 ft 17 kts 322°
2026-05-04 22:32 42.36886 -71.01275 30 ft 14 kts 316°
2026-05-04 22:32 42.36950 -71.01361 30 ft 13 kts 315°
2026-05-04 22:32 42.37020 -71.01455 30 ft 14 kts 315°
2026-05-04 22:33 42.37088 -71.01546 30 ft 13 kts 315°
2026-05-04 22:33 42.37171 -71.01658 30 ft 19 kts 314°
2026-05-04 22:33 42.37255 -71.01771 30 ft 15 kts 315°
2026-05-04 22:33 42.37290 -71.01865 30 ft 9 kts 250°
2026-05-04 22:34 42.37259 -71.01919 30 ft 7 kts 228°
2026-05-04 22:34 42.37236 -71.01978 30 ft 8 kts 258°
2026-05-04 22:34 42.37237 -71.02057 30 ft 9 kts 276°
2026-05-04 22:34 42.37233 -71.02132 30 ft 8 kts 248°
2026-05-04 22:35 42.37197 -71.02191 30 ft 9 kts 217°
2026-05-04 22:35 42.37155 -71.02205 30 ft 2 kts 156°
2026-05-04 22:35 42.37130 -71.02182 31 ft 9 kts 147°
2026-05-04 22:35 42.37111 -71.02166 30 ft 0 kts 148°
2026-05-04 22:36 42.37105 -71.02161 30 ft 1 kts 148°
2026-05-04 22:36 42.37097 -71.02153 31 ft 2 kts 148°
2026-05-04 22:36 42.37093 -71.02150 30 ft 0 kts 148°
2026-05-04 22:36 42.37092 -71.02149 30 ft 0 kts 148°